GORIZONT 3 1 11648U 79105A 21062.69604882 -.00000356 00000-0 00000-0 0 9991 2 11648 10.4956 308.7481 0010607 196.7884 15.7163 1.00259582103116 SL-12 R/B(2) 1 11684U 79105E 21062.57045404 -.00000242 00000-0 00000-0 0 9991 2 11684 11.3768 311.7489 0013035 253.0575 299.9101 0.98686398101965